Date String (YYYY-MM-DD hh:mm:ss) UTC,Instrument flags,absolute air pressure of the measurement (hPa),sample flow rate (lpm),inlet stack bypass flow (lpm),air temperature of the measurement (°C),ambient temperature measured by the external sensor (°C),aerosol sample conditioner tube jacket temperature (°C),OPC LED temperature (°C),internal box temperature (°C),relative humidity of the measurement (%),span deviation,mass concentration of particles derived from Lorenz-Mie calculation of OPC scattering (μg/m³),mass concentration of particles derived from Lorenz-Mie calculation of OPC scattering (μg/m³),mass concentration of particles derived from Lorenz-Mie calculation of OPC scattering (μg/m³)
DateTimeUTC,F1_M11,P_M11,Q1_M11,Q2_M11,T1_M11,T2_M11,T3_M11,T4_M11,T5_M11,U1_M11,ZSPAN_M11,X0_M11,X2_M11,X1_M11
2024-03-25 07:00:00,SystemResetWarning,0815.8,4.99,000.00,018.4,017.4,000.0,027.2,020.1,16.8,0000.0,0008.59,0004.11,0003.92
2024-03-25 07:01:00,SystemResetWarning,0815.8,5.01,000.00,018.4,017.4,000.0,027.2,020.1,16.9,0000.0,0008.60,0004.09,0003.91
2024-03-25 07:02:00,SystemResetWarning,0815.7,5.01,000.00,018.3,017.4,000.0,027.2,020.0,16.9,0000.0,0008.26,0004.08,0003.89
2024-03-25 07:03:00,SystemResetWarning,0815.7,4.99,000.00,018.3,017.3,000.0,027.1,020.0,16.9,0000.0,0008.03,0004.08,0003.89
2024-03-25 07:04:00,SystemResetWarning,0815.7,4.99,000.00,018.3,017.3,000.0,027.1,020.0,16.9,0000.0,0008.11,0004.09,0003.89
2024-03-25 07:05:00,SystemResetWarning,0815.7,5.01,000.00,018.3,017.3,000.0,027.2,020.1,17.0,0000.0,0008.12,0004.09,0003.89
2024-03-25 07:06:00,SystemResetWarning,0815.7,5.02,000.00,018.3,017.9,000.0,027.2,020.4,16.9,0000.0,0008.27,0004.10,0003.89
2024-03-25 07:07:00,SystemResetWarning,0815.8,4.99,000.00,018.6,018.8,000.0,027.3,020.9,16.7,0000.0,0008.75,0004.14,0003.89
2024-03-25 07:08:00,SystemResetWarning,0815.8,4.99,000.00,018.7,018.8,000.0,027.3,020.9,16.6,0000.0,0008.69,0004.15,0003.90
2024-03-25 07:09:00,SystemResetWarning,0815.7,5.02,000.00,018.7,018.6,000.0,027.2,020.8,16.6,0000.0,0008.70,0004.14,0003.89
2024-03-25 07:10:00,SystemResetWarning,0815.7,5.00,000.00,018.7,018.4,000.0,027.2,020.6,16.6,0000.0,0008.67,0004.16,0003.90
2024-03-25 07:11:00,SystemResetWarning,0815.7,4.98,000.00,018.7,018.3,000.0,027.2,020.5,16.6,0000.0,0007.79,0004.16,0003.89
2024-03-25 07:12:00,SystemResetWarning,0815.7,5.01,000.00,018.6,018.1,000.0,027.2,020.5,16.6,0000.0,0007.29,0004.17,0003.89
2024-03-25 07:13:00,SystemResetWarning,0815.7,5.01,000.00,018.6,018.0,000.0,027.2,020.4,16.6,0000.0,0007.29,0004.17,0003.90
2024-03-25 07:14:00,SystemResetWarning,0815.7,5.00,000.00,018.6,017.9,000.0,027.2,020.3,16.7,0000.0,0007.17,0004.16,0003.89
2024-03-25 07:15:00,SystemResetWarning,0815.7,4.99,000.00,018.6,017.8,000.0,027.2,020.3,16.7,0000.0,0007.52,0004.15,0003.89
2024-03-25 07:16:00,SystemResetWarning,0815.7,4.99,000.00,018.5,017.7,000.0,027.2,020.3,16.7,0000.0,0007.74,0004.15,0003.88
2024-03-25 07:17:00,SystemResetWarning,0815.7,4.99,000.00,018.5,017.7,000.0,027.2,020.2,16.8,0000.0,0007.64,0004.13,0003.88
2024-03-25 07:18:00,SystemResetWarning,0815.7,5.01,000.00,018.4,017.6,000.0,027.2,020.2,16.8,0000.0,0007.24,0004.11,0003.88
2024-03-25 07:19:00,SystemResetWarning,0815.6,5.01,000.00,018.4,017.6,000.0,027.2,020.1,16.8,0000.0,0007.27,0004.11,0003.88
2024-03-25 07:20:00,SystemResetWarning,0815.6,5.00,000.00,018.4,017.5,000.0,027.2,020.1,16.8,0000.0,0007.21,0004.09,0003.87
2024-03-25 07:21:00,SystemResetWarning,0815.6,5.00,000.00,018.4,017.5,000.0,027.1,020.1,16.8,0000.0,0007.08,0004.05,0003.86
2024-03-25 07:22:00,SystemResetWarning,0815.7,4.99,000.00,018.3,017.4,000.0,027.1,020.1,16.8,0000.0,0006.98,0004.03,0003.83
2024-03-25 07:23:00,SystemResetWarning,0815.6,4.99,000.00,018.3,017.4,000.0,027.1,020.1,16.8,0000.0,0007.63,0004.00,0003.81
2024-03-25 07:24:00,SystemResetWarning,0815.6,5.00,000.00,018.3,017.4,000.0,027.1,020.0,16.8,0000.0,0007.58,0003.95,0003.77
2024-03-25 07:25:00,SystemResetWarning,0815.7,5.00,000.00,018.3,017.4,000.0,027.1,020.0,16.8,0000.0,0007.54,0003.93,0003.73
2024-03-25 07:26:00,SystemResetWarning,0815.6,5.01,000.00,018.3,017.4,000.0,027.1,020.0,16.8,0000.0,0007.04,0003.88,0003.69
2024-03-25 07:27:00,SystemResetWarning,0815.7,5.00,000.00,018.2,017.4,000.0,027.0,020.0,16.7,0000.0,0006.43,0003.82,0003.65
2024-03-25 07:28:00,SystemResetWarning,0815.7,5.00,000.00,018.2,017.3,000.0,027.0,020.0,16.7,0000.0,0006.57,0003.78,0003.61
2024-03-25 07:29:00,SystemResetWarning,0815.7,5.00,000.00,018.3,017.7,000.0,027.1,020.2,16.7,0000.0,0006.41,0003.74,0003.56
2024-03-25 07:30:00,SystemResetWarning,0815.8,5.00,000.00,018.5,018.5,000.0,027.2,020.8,16.5,0000.0,0006.36,0003.71,0003.52
2024-03-25 07:31:00,SystemResetWarning,0815.8,5.00,000.00,018.7,019.0,000.0,027.2,021.0,16.3,0000.0,0006.26,0003.67,0003.48
2024-03-25 07:32:00,SystemResetWarning,0815.8,5.00,000.00,018.7,018.8,000.0,027.2,020.9,16.2,0000.0,0006.17,0003.63,0003.45
2024-03-25 07:33:00,SystemResetWarning,0815.8,4.99,000.00,018.7,018.7,000.0,027.2,020.8,16.2,0000.0,0006.04,0003.58,0003.43
2024-03-25 07:34:00,SystemResetWarning,0815.8,4.99,000.00,018.7,018.5,000.0,027.2,020.7,16.2,0000.0,0005.22,0003.59,0003.41
2024-03-25 07:35:00,SystemResetWarning,0815.8,5.01,000.00,018.7,018.3,000.0,027.2,020.6,16.2,0000.0,0005.35,0003.61,0003.41
2024-03-25 07:36:00,SystemResetWarning,0815.8,5.00,000.00,018.7,018.2,000.0,027.2,020.5,16.2,0000.0,0005.25,0003.58,0003.40
2024-03-25 07:37:00,SystemResetWarning,0815.8,5.00,000.00,018.7,018.1,000.0,027.2,020.5,16.2,0000.0,0005.32,0003.58,0003.40
2024-03-25 07:38:00,SystemResetWarning,0815.8,5.00,000.00,018.6,018.0,000.0,027.2,020.4,16.2,0000.0,0005.35,0003.57,0003.40
2024-03-25 07:39:00,SystemResetWarning,0815.8,5.00,000.00,018.6,017.9,000.0,027.2,020.4,16.2,0000.0,0005.13,0003.56,0003.40
2024-03-25 07:40:00,SystemResetWarning,0815.8,5.00,000.00,018.6,017.9,000.0,027.2,020.4,16.2,0000.0,0006.30,0003.56,0003.39
2024-03-25 07:41:00,SystemResetWarning,0815.9,5.00,000.00,018.6,017.8,000.0,027.2,020.3,16.2,0000.0,0006.53,0003.52,0003.39
2024-03-25 07:42:00,SystemResetWarning,0815.9,5.00,000.00,018.5,017.7,000.0,027.2,020.3,16.2,0000.0,0006.49,0003.52,0003.39
2024-03-25 07:43:00,SystemResetWarning,0815.9,5.00,000.00,018.5,017.7,000.0,027.2,020.3,16.3,0000.0,0006.58,0003.52,0003.39
2024-03-25 07:44:00,SystemResetWarning,0815.9,5.00,000.00,018.5,017.6,000.0,027.2,020.3,16.3,0000.0,0006.69,0003.53,0003.38
2024-03-25 07:45:00,SystemResetWarning,0815.8,5.00,000.00,018.5,017.6,000.0,027.2,020.2,16.3,0000.0,0006.43,0003.49,0003.37
2024-03-25 07:46:00,SystemResetWarning,0815.8,5.00,000.00,018.4,017.6,000.0,027.2,020.2,16.3,0000.0,0006.21,0003.45,0003.35
2024-03-25 07:47:00,SystemResetWarning,0815.9,5.00,000.00,018.4,017.6,000.0,027.2,020.2,16.3,0000.0,0006.21,0003.45,0003.35
2024-03-25 07:48:00,SystemResetWarning,0815.9,5.01,000.00,018.4,017.5,000.0,027.2,020.2,16.4,0000.0,0006.20,0003.46,0003.34
2024-03-25 07:49:00,SystemResetWarning,0815.9,5.00,000.00,018.4,017.5,000.0,027.1,020.1,16.4,0000.0,0006.14,0003.46,0003.34
2024-03-25 07:50:00,SystemResetWarning,0815.9,5.00,000.00,018.4,017.6,000.0,027.2,020.2,16.4,0000.0,0006.21,0003.47,0003.33
2024-03-25 07:51:00,SystemResetWarning,0816.0,4.99,000.00,018.5,018.3,000.0,027.3,020.7,16.3,0000.0,0004.78,0003.47,0003.33
2024-03-25 07:52:00,SystemResetWarning,0816.0,5.00,000.00,018.8,019.0,000.0,027.3,021.1,16.1,0000.0,0004.58,0003.48,0003.33
2024-03-25 07:53:00,SystemResetWarning,0816.0,4.99,000.00,018.8,019.0,000.0,027.3,021.0,16.0,0000.0,0004.90,0003.50,0003.32
2024-03-25 07:54:00,SystemResetWarning,0815.9,4.99,000.00,018.8,018.8,000.0,027.3,020.9,16.0,0000.0,0004.78,0003.49,0003.31
2024-03-25 07:55:00,SystemResetWarning,0815.9,5.00,000.00,018.8,018.6,000.0,027.3,020.8,16.0,0000.0,0004.81,0003.50,0003.32
2024-03-25 07:56:00,SystemResetWarning,0816.0,5.01,000.00,018.8,018.4,000.0,027.3,020.7,16.0,0000.0,0005.88,0003.50,0003.32
2024-03-25 07:57:00,SystemResetWarning,0816.0,5.00,000.00,018.8,018.3,000.0,027.3,020.6,16.0,0000.0,0006.19,0003.51,0003.33
2024-03-25 07:58:00,SystemResetWarning,0816.0,4.99,000.00,018.7,018.2,000.0,027.3,020.5,16.0,0000.0,0006.14,0003.50,0003.32
2024-03-25 07:59:00,SystemResetWarning,0816.0,4.99,000.00,018.7,018.0,000.0,027.3,020.5,16.1,0000.0,0006.20,0003.48,0003.32
